Location: Bermeries
(50.2863°N, 3.7551°E)
Time: 02:16:16
(UTC+00:00)

Cosmos 724 - Pass Details

Date: 23 May 2024
Orbit: 864 x 930 km, 65.6° (Epoch: 21 June)

Event Time Altitude Azimuth Distance (km) Brightness Sun altitude
Exits shadow 00:12:04 32° 203° (SSW) 1,475 4.9 -18.8°
Maximum altitude 00:14:55 74° 125° (SE) 913 4.2 -18.7°
Drops below altitude 10° 00:20:45 10° 42° (NE) 2,524 7.5 -18.6°
Sets 00:23:13 0° 40° (NE) 3,460 8.4 -18.5°
